Moose Lake, MN

2:37 PM CDT on March 30, 2017 (GMT -0500)
Moose Lake-Carlton County

Weather History for KMZH - May, 2013

Change the Weather History Date:

Monday, May 13, 2013

  Actual Average Record
Temperature  
Mean Temperature 45 °F -  
Max Temperature 62 °F 65 °F 88 °F (1977)
Min Temperature 28 °F 36 °F 20 °F (1953)
Degree Days  
Heating Degree Days 20    
Moisture  
Dew Point 20 °F    
Average Humidity 40    
Maximum Humidity 74    
Minimum Humidity 15    
Precipitation  
Precipitation 0.01 in - - ()
Sea Level Pressure  
Sea Level Pressure 29.93 in    
Wind  
Wind Speed 3 mph (SSE)    
Max Wind Speed 15 mph    
Max Gust Speed 23 mph    
Visibility 10 miles    
Events Rain    
Averages and records for this station are not official NWS values.
T = Trace of Precipitation, MM = Missing Value Source: NWS Daily Summary

Daily Weather History Graph

Daily Weather History Graph

Search for Another Location

Airport or City:

Trip Planner

Search our weather history database for the weather conditions in past years. The results will help you decide how hot, cold, wet, or windy it might be!

Date:

Astronomy

May. 13, 2013 Rise Set
Actual Time 5:39 AM CDT 8:36 PM CDT
Civil Twilight 5:04 AM CDT 9:11 PM CDT
Nautical Twilight 4:19 AM CDT 9:56 PM CDT
Astronomical Twilight 3:25 AM CDT 10:51 PM CDT
Moon 8:25 AM CDT (5/13) 11:45 PM CDT (5/13)
Length of Visible Light 16h 06m
Length of Day
14h 56m
Waxing Crescent, 12% of the Moon is Illuminated
May 13
Waxing Crescent
May 17
First Quarter
May 24
Full
May 31
Last Quarter
Jun 8
New

Hourly Weather History & Observations

Time (CDT) Temp. Windchill Dew Point Humidity Pressure Visibility Wind Dir Wind Speed Gust Speed Precip Events Conditions
12:13 AM 33.8 °F - 14.0 °F 44% 30.09 in 10.0 mi Calm Calm - N/A   Scattered Clouds
12:33 AM 32.0 °F - 14.0 °F 48% 30.09 in 10.0 mi Calm Calm - N/A   Clear
12:53 AM 32.0 °F - 15.8 °F 51% 30.09 in 10.0 mi Calm Calm - N/A   Clear
1:13 AM 32.0 °F - 21.2 °F 64% 30.09 in 10.0 mi Calm Calm - N/A   Clear
1:33 AM 32.0 °F - 21.2 °F 64% 30.09 in 10.0 mi Calm Calm - N/A   Clear
1:53 AM 32.0 °F - 19.4 °F 60% 30.09 in 10.0 mi Calm Calm - N/A   Clear
2:13 AM 30.2 °F - 21.2 °F 69% 30.09 in 10.0 mi Calm Calm - N/A   Clear
2:33 AM 30.2 °F - 17.6 °F 60% 30.08 in 10.0 mi Calm Calm - N/A   Clear
2:53 AM 30.2 °F - 21.2 °F 69% 30.08 in 10.0 mi Calm Calm - N/A   Clear
3:13 AM 28.4 °F - 17.6 °F 64% 30.08 in 10.0 mi Calm Calm - N/A   Clear
3:33 AM 30.2 °F - 21.2 °F 69% 30.08 in 10.0 mi Calm Calm - N/A   Clear
3:53 AM 28.4 °F - 21.2 °F 74% 30.08 in 10.0 mi Calm Calm - N/A   Clear
4:13 AM 28.4 °F - 21.2 °F 74% 30.08 in 10.0 mi Calm Calm - N/A   Clear
4:33 AM 28.4 °F - 21.2 °F 74% 30.08 in 10.0 mi Calm Calm - N/A   Clear
4:53 AM 28.4 °F - 19.4 °F 69% 30.07 in 10.0 mi Calm Calm - N/A   Clear
5:13 AM 28.4 °F - 19.4 °F 69% 30.07 in 10.0 mi Calm Calm - N/A   Clear
5:33 AM 28.4 °F - 19.4 °F 69% 30.07 in 10.0 mi Calm Calm - N/A   Clear
5:53 AM 28.4 °F - 21.2 °F 74% 30.07 in 10.0 mi Calm Calm - N/A   Clear
6:13 AM 30.2 °F - 21.2 °F 69% 30.08 in 10.0 mi Calm Calm - N/A   Clear
6:33 AM 32.0 °F - 21.2 °F 64% 30.07 in 10.0 mi Calm Calm - N/A   Clear
6:53 AM 35.6 °F - 23.0 °F 60% 30.07 in 10.0 mi Calm Calm - N/A   Clear
7:13 AM 39.2 °F 37.0 °F 14.0 °F 36% 30.07 in 10.0 mi SSE 3.5 mph - N/A   Clear
7:33 AM 41.0 °F 38.0 °F 10.4 °F 29% 30.07 in 10.0 mi SSE 4.6 mph - N/A   Clear
7:53 AM 42.8 °F 39.3 °F 12.2 °F 29% 30.07 in 10.0 mi SSE 5.8 mph - N/A   Clear
8:13 AM 42.8 °F 38.0 °F 12.2 °F 29% 30.07 in 10.0 mi South 8.1 mph - N/A   Clear
8:33 AM 44.6 °F 39.7 °F 10.4 °F 25% 30.06 in 10.0 mi South 9.2 mph - N/A   Clear
8:53 AM 46.4 °F 43.5 °F 10.4 °F 23% 30.06 in 10.0 mi South 5.8 mph - N/A   Clear
9:13 AM 46.4 °F 42.9 °F 10.4 °F 23% 30.05 in 10.0 mi South 6.9 mph - N/A   Clear
9:33 AM 48.2 °F - 10.4 °F 22% 30.03 in 10.0 mi South 6.9 mph - N/A   Clear
9:53 AM 50.0 °F - 10.4 °F 20% 30.02 in 10.0 mi South 5.8 mph - N/A   Clear
10:13 AM 51.8 °F - 8.6 °F 18% 30.00 in 10.0 mi South 9.2 mph 17.3 mph N/A   Clear
10:33 AM 53.6 °F - 6.8 °F 15% 30.00 in 10.0 mi South 12.7 mph 16.1 mph N/A   Clear
10:53 AM 53.6 °F - 6.8 °F 15% 29.99 in 10.0 mi South 6.9 mph 16.1 mph N/A   Scattered Clouds
11:13 AM 55.4 °F - 8.6 °F 15% 29.98 in 10.0 mi SSE 9.2 mph - N/A   Mostly Cloudy
11:33 AM 55.4 °F - 8.6 °F 15% 29.96 in 10.0 mi South 8.1 mph - N/A   Overcast
11:53 AM 55.4 °F - 8.6 °F 15% 29.95 in 10.0 mi South 11.5 mph 19.6 mph N/A   Mostly Cloudy
12:13 PM 55.4 °F - 8.6 °F 15% 29.95 in 10.0 mi South 6.9 mph - N/A   Overcast
12:33 PM 53.6 °F - 17.6 °F 24% 29.95 in 10.0 mi South 9.2 mph 18.4 mph N/A Rain Light Rain
12:53 PM 51.8 °F - 19.4 °F 28% 29.95 in 10.0 mi SSW 10.4 mph - N/A Rain Light Rain
1:13 PM 51.8 °F - 19.4 °F 28% 29.93 in 10.0 mi South 4.6 mph - N/A   Overcast
1:33 PM 51.8 °F - 19.4 °F 28% 29.92 in 10.0 mi SSE 6.9 mph - N/A Rain Light Rain
1:53 PM 50.0 °F - 28.4 °F 43% 29.93 in 7.0 mi South 4.6 mph - 0.01 in Rain Rain
2:13 PM 50.0 °F - 32.0 °F 50% 29.91 in 10.0 mi SE 4.6 mph - N/A   Overcast
2:33 PM 51.8 °F - 28.4 °F 41% 29.89 in 10.0 mi SE 8.1 mph - N/A   Overcast
3:33 PM 55.4 °F - 26.6 °F 33% 29.85 in 10.0 mi SSE 10.4 mph 16.1 mph N/A   Mostly Cloudy
3:53 PM 57.2 °F - 23.0 °F 27% 29.83 in 10.0 mi South 10.4 mph 18.4 mph N/A   Scattered Clouds
4:13 PM 57.2 °F - 23.0 °F 27% 29.81 in 10.0 mi South 10.4 mph 21.9 mph N/A   Scattered Clouds
4:33 PM 59.0 °F - 23.0 °F 25% 29.81 in 10.0 mi SSE 10.4 mph 19.6 mph N/A   Clear
4:53 PM 60.8 °F - 26.6 °F 27% 29.80 in 10.0 mi SSE 15.0 mph 21.9 mph N/A   Clear
5:13 PM 60.8 °F - 26.6 °F 27% 29.79 in 10.0 mi South 12.7 mph 20.7 mph N/A   Clear
5:33 PM 62.6 °F - 26.6 °F 26% 29.79 in 10.0 mi South 15.0 mph 20.7 mph N/A   Clear
5:53 PM 62.6 °F - 28.4 °F 27% 29.76 in 10.0 mi South 11.5 mph 23.0 mph N/A   Clear
6:33 PM 62.6 °F - 28.4 °F 27% 29.74 in 10.0 mi South 10.4 mph 18.4 mph N/A   Clear
7:13 PM 62.6 °F - 28.4 °F 27% 29.73 in 10.0 mi South 11.5 mph 18.4 mph N/A   Clear
7:33 PM 62.6 °F - 26.6 °F 26% 29.72 in 10.0 mi SSE 8.1 mph - N/A   Clear
7:53 PM 60.8 °F - 24.8 °F 25% 29.71 in 10.0 mi SSE 5.8 mph - N/A   Clear
8:13 PM 59.0 °F - 23.0 °F 25% 29.69 in 10.0 mi SSE 9.2 mph - N/A   Clear
8:33 PM 59.0 °F - 23.0 °F 25% 29.69 in 10.0 mi SSE 4.6 mph - N/A   Clear
8:53 PM 57.2 °F - 24.8 °F 29% 29.68 in 10.0 mi SSE 6.9 mph - N/A   Clear
9:13 PM 57.2 °F - 24.8 °F 29% 29.68 in 10.0 mi South 5.8 mph - N/A   Clear
9:33 PM 57.2 °F - 26.6 °F 31% 29.68 in 10.0 mi SSE 3.5 mph - N/A   Clear
9:53 PM 55.4 °F - 26.6 °F 33% 29.69 in 10.0 mi Calm Calm - N/A   Scattered Clouds
10:13 PM 55.4 °F - 26.6 °F 33% 29.68 in 10.0 mi Calm Calm - N/A   Scattered Clouds
10:33 PM 53.6 °F - 28.4 °F 38% 29.67 in 10.0 mi South 3.5 mph - N/A   Clear
10:53 PM 51.8 °F - 28.4 °F 41% 29.67 in 10.0 mi SE 3.5 mph - N/A   Clear
11:13 PM 50.0 °F - 30.2 °F 47% 29.67 in 10.0 mi Calm Calm - N/A   Clear
11:33 PM 46.4 °F 45.2 °F 30.2 °F 53% 29.67 in 10.0 mi NNE 3.5 mph - N/A   Clear
11:53 PM 50.0 °F - 30.2 °F 47% 29.67 in 10.0 mi North 3.5 mph - N/A   Clear